GEFSSE_prec_meanprecacc_234.txt.gz
Total_Precipitation_Accumulation
0.99 0.98 1.10 0.90 0.79 0.84 0.92 0.97 1.02 1.00 1.01 1.06 0.99 0.99 0.99 0.96 0.86 0.79 0.80 0.83 0.91 1.00 1.13 1.25 1.30 1.30 1.27 1.16 1.11 1.11 1.14 1.12 1.31 1.33 1.29 1.25 1.31 1.47 1.60 1.60 1.63 1.09 0.93
0.71 0.65 0.79 0.71 0.74 0.87 0.92 0.98 1.05 1.01 0.97 0.97 0.94 0.92 0.90 0.87 0.88 0.80 0.79 0.87 0.93 1.00 1.07 1.09 1.10 1.09 1.03 0.98 0.94 0.96 1.07 1.16 1.40 1.53 1.57 1.44 1.49 1.62 1.63 1.57 1.69 1.02 0.93
0.46 0.42 0.48 0.59 0.59 0.68 0.74 0.79 0.86 0.83 0.82 0.85 0.86 0.84 0.90 0.91 0.85 0.79 0.80 0.88 0.95 0.97 0.92 0.93 0.94 0.90 0.88 0.90 0.89 0.98 1.05 1.31 1.69 1.91 2.06 1.62 1.16 1.57 1.64 1.48 1.28 0.89 0.92
0.26 0.29 0.33 0.48 0.53 0.58 0.67 0.74 0.82 0.80 0.79 0.82 0.82 0.82 0.80 0.82 0.84 0.84 0.87 0.93 0.92 0.89 0.82 0.82 0.79 0.73 0.74 0.80 0.90 1.03 1.11 1.30 1.62 2.11 2.29 1.42 0.84 1.08 1.19 1.07 1.02 0.88 0.84
0.16 0.22 0.34 0.43 0.49 0.58 0.60 0.67 0.77 0.72 0.74 0.76 0.75 0.77 0.78 0.78 0.82 0.87 0.89 0.89 0.81 0.79 0.77 0.73 0.65 0.62 0.63 0.71 0.87 0.98 1.07 1.28 1.59 1.83 1.54 1.41 1.23 1.09 0.95 0.86 0.89 0.81 0.70
0.14 0.17 0.28 0.38 0.37 0.39 0.47 0.57 0.66 0.68 0.71 0.71 0.68 0.73 0.75 0.72 0.76 0.77 0.74 0.74 0.73 0.72 0.70 0.66 0.58 0.61 0.66 0.75 0.88 0.93 1.03 1.28 1.47 1.16 0.97 1.16 1.02 1.05 0.98 0.98 0.99 0.88 0.71
0.15 0.16 0.23 0.35 0.37 0.40 0.45 0.52 0.58 0.65 0.64 0.63 0.65 0.65 0.67 0.67 0.69 0.70 0.61 0.61 0.69 0.69 0.63 0.58 0.58 0.63 0.68 0.74 0.79 0.88 1.12 1.32 1.24 0.90 0.93 1.17 0.88 0.81 0.97 1.12 1.23 1.06 0.84
0.18 0.14 0.20 0.32 0.37 0.41 0.42 0.46 0.53 0.53 0.55 0.61 0.60 0.54 0.53 0.55 0.57 0.60 0.58 0.61 0.65 0.65 0.58 0.54 0.62 0.65 0.66 0.69 0.72 0.78 1.00 1.11 0.92 0.81 0.89 0.95 0.64 0.74 0.96 1.16 1.32 1.20 1.04
0.29 0.26 0.24 0.29 0.34 0.40 0.46 0.47 0.50 0.49 0.48 0.51 0.51 0.50 0.50 0.49 0.48 0.51 0.62 0.66 0.61 0.57 0.55 0.51 0.52 0.53 0.53 0.57 0.66 0.78 0.97 1.11 0.96 0.92 0.81 0.69 0.57 0.74 1.00 1.15 1.23 1.26 1.18
0.64 0.49 0.34 0.32 0.39 0.40 0.39 0.51 0.58 0.54 0.51 0.50 0.51 0.52 0.53 0.51 0.50 0.54 0.60 0.68 0.68 0.62 0.58 0.53 0.49 0.48 0.55 0.62 0.73 0.91 1.07 0.99 0.90 0.96 0.92 0.68 0.66 0.81 1.00 1.11 1.28 1.33 1.25
1.16 0.97 0.61 0.48 0.50 0.53 0.46 0.48 0.65 0.66 0.59 0.60 0.63 0.64 0.78 0.92 0.82 0.92 0.86 0.94 0.91 0.84 0.79 0.77 0.73 0.71 0.66 0.62 0.78 1.05 1.01 0.93 1.18 1.24 0.89 0.70 0.82 1.06 1.22 1.30 1.39 1.39 1.34
1.35 1.25 0.94 0.79 0.62 0.57 0.51 0.67 0.91 0.88 0.90 0.95 1.04 0.99 1.26 1.45 1.35 1.04 1.17 1.43 1.41 1.37 1.24 1.22 1.22 1.03 0.84 0.81 1.30 1.65 1.27 1.31 1.39 1.10 0.89 0.93 1.22 1.53 1.74 1.63 1.50 1.38 1.27
1.49 1.37 1.14 1.04 0.92 0.76 0.90 0.87 1.02 1.22 1.38 1.23 1.11 1.18 1.54 1.45 1.20 1.21 1.34 1.50 1.72 1.65 1.56 1.69 1.79 1.52 1.45 1.70 2.02 1.93 1.52 1.53 1.50 1.36 1.12 1.26 1.64 2.08 2.29 2.13 1.84 1.57 1.35
1.79 1.63 1.43 1.24 1.12 1.09 1.09 1.06 1.10 1.17 1.36 1.34 1.39 1.39 1.62 1.85 1.77 1.78 1.91 1.87 1.98 2.13 2.41 2.29 2.34 2.15 2.02 1.94 2.08 1.90 1.74 1.76 1.68 1.90 1.96 1.91 1.98 2.26 2.70 2.60 2.22 1.87 1.64
2.29 2.18 1.97 1.63 1.59 1.54 1.59 1.63 1.36 1.37 1.47 1.69 1.84 1.79 1.81 2.02 2.05 2.12 2.16 2.19 2.02 2.14 2.32 2.56 2.46 2.54 2.57 2.34 2.06 1.96 2.05 2.06 2.16 2.15 2.11 2.31 2.24 2.25 2.73 2.85 2.54 2.18 1.99
2.96 2.97 2.75 2.40 2.35 2.26 2.06 1.98 1.88 1.71 1.85 1.93 2.02 2.02 2.01 2.25 2.42 2.37 2.22 2.25 2.13 2.14 2.25 2.48 2.55 2.90 2.88 2.78 2.35 2.16 2.20 2.23 2.23 2.33 2.25 2.50 2.38 2.13 2.38 2.67 2.76 2.61 2.36
3.23 3.40 3.41 3.25 3.23 3.09 2.80 2.49 2.27 2.19 2.11 2.30 2.39 2.31 2.36 2.42 2.59 2.51 2.43 2.25 2.24 2.28 2.44 2.54 2.63 2.90 2.92 2.84 2.66 2.46 2.35 2.10 1.97 2.03 2.06 2.22 2.18 2.07 2.17 2.39 2.69 2.80 2.69
3.50 3.71 3.93 3.89 3.89 3.67 3.42 3.11 2.84 2.62 2.55 2.55 2.52 2.50 2.42 2.56 2.63 2.67 2.46 2.21 2.33 2.30 2.45 2.75 2.86 3.03 3.18 3.18 2.89 2.62 2.48 2.28 2.03 1.98 1.87 1.85 2.04 1.72 1.94 2.19 2.41 2.57 2.86
3.88 4.25 4.61 4.68 4.60 4.25 3.85 3.62 3.51 3.25 3.01 2.81 2.77 2.66 2.58 2.59 2.52 2.63 2.45 2.34 2.41 2.58 2.62 2.46 2.99 3.27 3.32 3.32 2.77 2.65 2.29 2.13 1.97 1.82 1.82 1.66 1.72 1.73 1.81 1.85 2.00 2.14 2.68
4.40 4.98 5.02 4.98 5.23 5.00 4.68 4.41 4.17 3.74 3.36 3.05 2.90 2.78 2.58 2.49 2.41 2.65 2.36 2.33 2.49 2.73 2.77 2.84 3.23 3.33 3.18 3.32 2.80 2.44 2.04 1.70 1.63 1.60 1.49 1.47 1.44 1.37 1.46 1.78 2.13 1.93 2.34
4.25 4.79 5.33 5.43 5.32 5.16 4.86 4.37 3.97 3.56 3.33 3.05 2.82 2.62 2.55 2.50 2.55 2.91 2.58 2.76 2.67 2.70 2.76 2.91 3.16 3.11 2.94 3.29 3.31 2.59 1.80 1.37 1.35 1.22 1.18 1.21 1.15 1.20 1.46 1.89 2.22 2.28 2.05
3.70 4.12 4.50 4.75 4.47 4.15 3.93 3.81 3.65 3.59 3.19 3.04 3.00 3.02 2.75 2.75 2.71 2.68 2.83 2.74 2.77 2.84 2.67 2.76 3.07 2.91 2.55 2.95 3.26 3.18 2.36 1.82 1.37 0.92 1.02 1.06 1.12 1.28 1.35 1.44 1.83 2.20 2.12
3.17 3.30 3.42 3.58 3.65 3.65 3.68 3.77 3.82 3.93 3.60 3.46 3.40 3.31 2.92 2.82 2.75 2.77 2.68 2.58 2.67 2.61 2.55 2.55 2.77 2.86 2.63 2.63 3.02 3.36 2.74 2.08 1.60 1.10 1.00 0.97 1.21 1.51 1.52 1.54 1.68 1.95 2.08
2.47 2.73 3.15 3.32 3.44 3.63 3.87 3.85 3.84 3.75 3.65 3.64 3.75 3.72 3.57 3.29 3.02 2.80 2.62 2.51 2.42 2.32 2.42 2.20 2.46 2.66 2.73 2.40 2.53 2.62 2.48 2.39 2.27 1.64 1.23 1.13 1.40 1.58 1.63 1.62 1.69 1.84 2.00
2.08 2.36 2.86 3.37 3.60 3.77 3.96 4.03 4.24 4.07 3.92 3.80 3.85 3.91 3.68 3.42 3.10 2.76 2.68 2.58 2.47 2.33 2.26 2.21 2.38 2.30 2.36 2.32 2.35 2.37 2.38 2.38 2.25 2.06 1.68 1.53 1.47 1.25 1.28 1.42 1.64 1.89 1.99
2.23 2.48 2.85 3.26 3.57 3.75 3.86 3.90 3.94 3.93 3.89 3.68 3.55 3.30 2.96 2.83 2.71 2.51 2.44 2.39 2.28 2.27 2.27 2.24 2.21 2.17 2.23 2.30 2.27 2.24 2.33 2.34 2.30 2.36 2.04 1.78 1.62 1.36 1.31 1.38 1.52 1.69 1.77

GEFSSE_prec_meanprecacc_240.txt.gz
Total_Precipitation_Accumulation
1.09 1.08 1.20 0.99 0.87 0.94 1.08 1.15 1.21 1.16 1.15 1.18 1.11 1.13 1.10 1.06 0.94 0.87 0.89 0.92 0.98 1.08 1.23 1.38 1.45 1.42 1.38 1.25 1.20 1.17 1.21 1.21 1.40 1.40 1.34 1.29 1.36 1.53 1.69 1.71 1.70 1.12 0.97
0.80 0.74 0.88 0.78 0.80 0.94 1.00 1.10 1.19 1.13 1.08 1.07 1.05 1.03 1.00 0.97 0.96 0.89 0.89 0.98 1.02 1.10 1.18 1.23 1.29 1.25 1.15 1.06 1.01 1.03 1.14 1.24 1.49 1.60 1.64 1.51 1.56 1.70 1.75 1.69 1.74 1.04 0.97
0.52 0.48 0.55 0.65 0.65 0.75 0.79 0.85 0.95 0.93 0.91 0.94 0.96 0.96 1.02 1.03 0.96 0.90 0.92 1.00 1.05 1.07 1.02 1.06 1.09 1.04 0.98 0.97 0.96 1.05 1.14 1.41 1.80 2.01 2.15 1.70 1.26 1.69 1.74 1.56 1.34 0.93 0.95
0.32 0.34 0.37 0.54 0.58 0.63 0.72 0.79 0.88 0.89 0.87 0.89 0.92 0.95 0.94 0.96 0.97 0.98 0.99 1.04 1.02 0.98 0.90 0.93 0.90 0.83 0.81 0.87 0.98 1.10 1.20 1.42 1.76 2.24 2.40 1.52 0.94 1.18 1.26 1.12 1.06 0.92 0.87
0.23 0.31 0.42 0.50 0.54 0.62 0.64 0.71 0.81 0.79 0.82 0.85 0.85 0.89 0.91 0.92 0.97 0.99 1.00 0.98 0.89 0.87 0.84 0.81 0.73 0.69 0.68 0.76 0.94 1.06 1.19 1.43 1.75 1.96 1.64 1.50 1.31 1.16 0.99 0.90 0.92 0.84 0.73
0.19 0.29 0.45 0.49 0.42 0.43 0.50 0.60 0.70 0.74 0.79 0.80 0.76 0.83 0.89 0.89 0.88 0.87 0.84 0.81 0.79 0.78 0.76 0.72 0.64 0.66 0.71 0.81 0.95 1.03 1.18 1.42 1.59 1.26 1.09 1.28 1.08 1.10 1.02 1.01 1.02 0.90 0.74
0.19 0.23 0.36 0.47 0.44 0.45 0.49 0.55 0.62 0.70 0.71 0.69 0.71 0.78 0.87 0.81 0.77 0.77 0.67 0.66 0.73 0.72 0.67 0.62 0.62 0.67 0.73 0.79 0.86 0.98 1.23 1.40 1.30 0.97 1.02 1.26 0.93 0.85 1.00 1.15 1.26 1.09 0.87
0.20 0.18 0.26 0.40 0.45 0.48 0.48 0.52 0.60 0.61 0.64 0.68 0.72 0.78 0.70 0.63 0.62 0.66 0.62 0.64 0.68 0.69 0.62 0.57 0.65 0.68 0.70 0.74 0.78 0.84 1.05 1.15 0.95 0.86 0.95 1.01 0.69 0.77 0.98 1.19 1.36 1.24 1.07
0.31 0.28 0.27 0.36 0.44 0.51 0.56 0.58 0.62 0.61 0.59 0.61 0.67 0.69 0.61 0.55 0.52 0.54 0.65 0.69 0.65 0.62 0.61 0.56 0.57 0.56 0.57 0.62 0.70 0.82 1.01 1.15 1.01 0.98 0.86 0.73 0.61 0.77 1.03 1.18 1.26 1.28 1.21
0.68 0.52 0.36 0.35 0.43 0.45 0.46 0.60 0.68 0.65 0.61 0.59 0.60 0.62 0.60 0.58 0.54 0.57 0.63 0.71 0.71 0.67 0.64 0.58 0.53 0.52 0.58 0.64 0.75 0.94 1.10 1.03 0.97 1.02 0.95 0.71 0.70 0.86 1.04 1.15 1.30 1.35 1.27
1.20 1.02 0.65 0.50 0.51 0.55 0.48 0.53 0.72 0.74 0.65 0.65 0.68 0.71 0.84 0.96 0.85 0.95 0.90 0.97 0.94 0.87 0.83 0.80 0.76 0.73 0.67 0.63 0.80 1.06 1.04 0.98 1.26 1.32 0.95 0.74 0.87 1.12 1.27 1.34 1.42 1.41 1.36
1.38 1.29 0.99 0.83 0.64 0.59 0.54 0.70 0.94 0.90 0.92 0.98 1.06 1.01 1.29 1.49 1.38 1.07 1.22 1.48 1.44 1.39 1.27 1.24 1.24 1.04 0.85 0.82 1.31 1.67 1.30 1.37 1.49 1.18 0.94 0.97 1.28 1.58 1.78 1.67 1.53 1.41 1.29
1.51 1.41 1.19 1.08 0.96 0.81 0.93 0.90 1.05 1.25 1.41 1.26 1.14 1.21 1.57 1.48 1.24 1.24 1.38 1.55 1.74 1.67 1.58 1.71 1.81 1.54 1.47 1.72 2.04 1.96 1.55 1.59 1.54 1.42 1.18 1.30 1.69 2.13 2.34 2.17 1.86 1.59 1.36
1.80 1.67 1.47 1.28 1.15 1.12 1.12 1.09 1.14 1.20 1.39 1.39 1.47 1.45 1.66 1.89 1.81 1.82 1.95 1.92 2.01 2.17 2.45 2.33 2.37 2.17 2.05 1.97 2.11 1.93 1.77 1.79 1.72 1.96 1.99 1.94 2.02 2.31 2.74 2.63 2.24 1.88 1.66
2.30 2.20 1.99 1.65 1.60 1.56 1.61 1.65 1.39 1.43 1.53 1.75 1.90 1.88 1.88 2.11 2.09 2.17 2.24 2.24 2.07 2.19 2.37 2.62 2.50 2.57 2.61 2.38 2.10 1.99 2.09 2.11 2.20 2.20 2.16 2.36 2.28 2.28 2.75 2.88 2.57 2.21 2.01
2.97 2.99 2.77 2.42 2.36 2.27 2.09 2.00 1.91 1.76 1.91 1.98 2.08 2.07 2.07 2.32 2.46 2.41 2.27 2.30 2.18 2.18 2.29 2.51 2.58 2.92 2.91 2.83 2.38 2.19 2.24 2.28 2.28 2.39 2.30 2.54 2.41 2.15 2.40 2.69 2.79 2.64 2.38
3.24 3.42 3.42 3.26 3.23 3.11 2.83 2.52 2.29 2.23 2.18 2.36 2.44 2.36 2.42 2.48 2.63 2.54 2.45 2.27 2.27 2.32 2.49 2.58 2.67 2.94 2.96 2.89 2.72 2.53 2.41 2.17 2.04 2.10 2.11 2.26 2.21 2.11 2.21 2.44 2.73 2.83 2.73
3.51 3.72 3.94 3.90 3.90 3.69 3.44 3.13 2.87 2.65 2.61 2.60 2.56 2.55 2.49 2.62 2.66 2.70 2.50 2.24 2.35 2.33 2.49 2.79 2.90 3.07 3.22 3.23 2.94 2.68 2.53 2.35 2.10 2.04 1.93 1.90 2.11 1.80 2.00 2.27 2.48 2.65 2.95
3.88 4.26 4.62 4.69 4.62 4.26 3.87 3.64 3.53 3.27 3.04 2.85 2.81 2.70 2.61 2.63 2.56 2.67 2.48 2.37 2.44 2.61 2.65 2.49 3.03 3.32 3.37 3.36 2.81 2.69 2.34 2.19 2.04 1.89 1.90 1.75 1.84 1.90 1.93 1.94 2.08 2.25 2.78
4.40 4.99 5.03 4.99 5.26 5.02 4.69 4.43 4.19 3.76 3.39 3.07 2.93 2.82 2.62 2.53 2.44 2.68 2.39 2.36 2.53 2.77 2.83 2.90 3.29 3.37 3.21 3.36 2.85 2.50 2.12 1.78 1.70 1.68 1.55 1.55 1.55 1.53 1.66 1.98 2.27 2.03 2.46
4.26 4.82 5.42 5.50 5.35 5.18 4.87 4.38 3.99 3.58 3.35 3.07 2.84 2.64 2.58 2.54 2.58 2.93 2.60 2.79 2.71 2.75 2.80 2.97 3.21 3.17 2.99 3.34 3.37 2.65 1.88 1.44 1.42 1.31 1.26 1.32 1.29 1.36 1.61 2.09 2.40 2.45 2.21
3.71 4.15 4.58 4.83 4.50 4.17 3.94 3.82 3.65 3.60 3.21 3.06 3.02 3.05 2.78 2.79 2.74 2.72 2.87 2.78 2.81 2.89 2.71 2.80 3.11 2.96 2.60 3.00 3.31 3.24 2.42 1.87 1.44 1.01 1.12 1.18 1.28 1.46 1.50 1.58 2.00 2.46 2.30
3.17 3.32 3.45 3.64 3.68 3.67 3.69 3.77 3.83 3.94 3.62 3.48 3.43 3.34 2.95 2.86 2.80 2.82 2.73 2.63 2.72 2.67 2.59 2.59 2.81 2.91 2.68 2.68 3.08 3.42 2.78 2.11 1.65 1.18 1.07 1.04 1.37 1.69 1.66 1.66 1.81 2.13 2.24
2.48 2.74 3.17 3.36 3.46 3.64 3.88 3.85 3.85 3.76 3.67 3.66 3.77 3.75 3.59 3.31 3.06 2.83 2.66 2.55 2.46 2.37 2.47 2.24 2.51 2.72 2.79 2.46 2.61 2.71 2.56 2.45 2.32 1.68 1.28 1.18 1.47 1.69 1.80 1.78 1.84 2.01 2.14
2.08 2.37 2.88 3.38 3.61 3.78 3.97 4.04 4.25 4.09 3.94 3.81 3.87 3.92 3.70 3.44 3.12 2.79 2.70 2.62 2.52 2.38 2.30 2.26 2.44 2.36 2.40 2.38 2.43 2.46 2.48 2.47 2.33 2.10 1.71 1.55 1.51 1.30 1.34 1.50 1.74 1.98 2.07
2.24 2.49 2.86 3.27 3.58 3.76 3.88 3.92 3.96 3.94 3.90 3.69 3.57 3.32 2.97 2.84 2.72 2.53 2.46 2.41 2.30 2.30 2.30 2.27 2.26 2.22 2.26 2.34 2.32 2.31 2.41 2.43 2.38 2.42 2.09 1.82 1.66 1.40 1.36 1.44 1.58 1.75 1.84

GEFSSE_prec_meanprecacc_246.txt.gz
Total_Precipitation_Accumulation
1.16 1.20 1.36 1.13 1.00 1.07 1.20 1.25 1.30 1.24 1.23 1.26 1.21 1.21 1.20 1.19 1.08 0.97 1.00 1.09 1.19 1.28 1.46 1.55 1.55 1.51 1.48 1.35 1.26 1.23 1.29 1.28 1.46 1.46 1.38 1.34 1.41 1.57 1.74 1.80 1.80 1.21 1.06
0.91 0.88 1.00 0.93 0.93 1.05 1.09 1.17 1.27 1.22 1.16 1.16 1.14 1.11 1.11 1.09 1.07 0.98 1.00 1.10 1.15 1.25 1.40 1.45 1.42 1.35 1.24 1.14 1.07 1.09 1.22 1.31 1.54 1.66 1.68 1.56 1.62 1.77 1.82 1.77 1.81 1.10 1.03
0.63 0.59 0.64 0.77 0.78 0.86 0.89 0.94 1.04 1.02 1.00 1.04 1.05 1.04 1.11 1.13 1.07 1.01 1.02 1.10 1.14 1.17 1.18 1.27 1.25 1.15 1.06 1.03 1.02 1.11 1.20 1.48 1.86 2.09 2.21 1.74 1.33 1.77 1.83 1.63 1.38 0.97 0.99
0.42 0.42 0.45 0.64 0.68 0.72 0.81 0.89 0.98 0.98 0.98 1.00 1.00 1.03 1.03 1.05 1.09 1.10 1.09 1.13 1.10 1.07 1.02 1.07 1.04 0.93 0.89 0.93 1.04 1.17 1.27 1.50 1.85 2.32 2.45 1.57 1.00 1.27 1.34 1.17 1.10 0.95 0.90
0.29 0.37 0.50 0.57 0.61 0.67 0.70 0.79 0.90 0.89 0.94 0.95 0.93 0.96 0.99 1.04 1.10 1.10 1.09 1.06 0.96 0.93 0.91 0.90 0.84 0.78 0.75 0.82 1.00 1.13 1.27 1.54 1.84 2.01 1.68 1.55 1.38 1.25 1.06 0.94 0.95 0.87 0.76
0.24 0.34 0.51 0.56 0.47 0.47 0.55 0.67 0.78 0.85 0.90 0.89 0.85 0.91 0.99 1.01 1.01 0.97 0.92 0.87 0.84 0.82 0.81 0.79 0.71 0.73 0.77 0.87 1.01 1.10 1.26 1.53 1.68 1.30 1.14 1.33 1.14 1.18 1.07 1.05 1.05 0.94 0.76
0.26 0.32 0.46 0.57 0.51 0.50 0.54 0.61 0.70 0.84 0.83 0.80 0.81 0.88 0.99 0.93 0.90 0.87 0.74 0.69 0.75 0.75 0.71 0.67 0.68 0.73 0.79 0.85 0.93 1.05 1.32 1.51 1.37 1.02 1.07 1.31 0.97 0.91 1.05 1.19 1.31 1.13 0.90
0.31 0.30 0.36 0.49 0.52 0.55 0.55 0.59 0.67 0.69 0.73 0.79 0.84 0.89 0.83 0.78 0.76 0.76 0.68 0.68 0.71 0.73 0.67 0.62 0.71 0.73 0.74 0.79 0.85 0.93 1.16 1.25 1.02 0.91 0.99 1.06 0.74 0.83 1.04 1.24 1.43 1.30 1.11
0.36 0.35 0.36 0.44 0.51 0.57 0.64 0.64 0.67 0.67 0.67 0.74 0.80 0.81 0.76 0.69 0.64 0.63 0.70 0.74 0.70 0.68 0.67 0.62 0.62 0.62 0.64 0.68 0.78 0.91 1.10 1.23 1.07 1.01 0.89 0.76 0.67 0.84 1.11 1.25 1.32 1.34 1.26
0.71 0.57 0.41 0.39 0.48 0.53 0.54 0.68 0.75 0.71 0.68 0.70 0.73 0.77 0.74 0.67 0.61 0.64 0.70 0.77 0.77 0.72 0.69 0.62 0.58 0.57 0.64 0.70 0.82 1.02 1.19 1.10 1.00 1.04 0.96 0.73 0.76 0.94 1.14 1.23 1.37 1.40 1.32
1.23 1.06 0.68 0.54 0.59 0.65 0.57 0.60 0.78 0.81 0.74 0.76 0.80 0.85 0.94 1.02 0.89 1.00 0.97 1.04 1.00 0.92 0.89 0.86 0.83 0.79 0.72 0.68 0.86 1.11 1.08 1.01 1.28 1.34 0.96 0.77 0.92 1.20 1.35 1.42 1.49 1.46 1.41
1.41 1.33 1.02 0.88 0.74 0.67 0.59 0.73 0.97 0.94 0.98 1.03 1.12 1.08 1.34 1.52 1.41 1.10 1.28 1.57 1.53 1.48 1.35 1.33 1.31 1.09 0.88 0.84 1.33 1.70 1.32 1.39 1.52 1.20 0.98 1.03 1.34 1.65 1.85 1.72 1.57 1.45 1.33
1.53 1.44 1.22 1.13 1.04 0.86 0.95 0.91 1.07 1.28 1.44 1.29 1.18 1.24 1.60 1.50 1.25 1.26 1.41 1.61 1.81 1.72 1.62 1.74 1.84 1.56 1.48 1.73 2.05 1.97 1.56 1.60 1.57 1.44 1.21 1.34 1.73 2.19 2.40 2.21 1.90 1.63 1.39
1.82 1.71 1.50 1.30 1.19 1.15 1.15 1.11 1.16 1.22 1.41 1.42 1.49 1.47 1.68 1.91 1.83 1.84 1.99 1.96 2.05 2.19 2.47 2.34 2.40 2.20 2.07 1.99 2.12 1.94 1.79 1.81 1.74 1.99 2.02 1.97 2.06 2.36 2.80 2.70 2.30 1.94 1.70
2.32 2.23 2.01 1.67 1.63 1.58 1.64 1.68 1.41 1.45 1.56 1.78 1.93 1.90 1.90 2.13 2.11 2.18 2.26 2.28 2.10 2.21 2.38 2.63 2.53 2.60 2.64 2.42 2.13 2.01 2.11 2.13 2.21 2.24 2.18 2.38 2.32 2.33 2.82 2.95 2.63 2.27 2.08
2.99 3.01 2.79 2.44 2.38 2.31 2.12 2.04 1.93 1.79 1.93 2.01 2.11 2.09 2.11 2.35 2.49 2.42 2.29 2.32 2.21 2.21 2.31 2.53 2.61 2.96 2.96 2.88 2.42 2.23 2.27 2.31 2.32 2.43 2.34 2.57 2.46 2.22 2.48 2.77 2.86 2.71 2.45
3.26 3.43 3.44 3.28 3.25 3.14 2.86 2.54 2.32 2.25 2.21 2.40 2.47 2.39 2.45 2.51 2.65 2.56 2.49 2.31 2.30 2.36 2.54 2.62 2.70 2.98 3.00 2.93 2.76 2.58 2.45 2.21 2.09 2.15 2.16 2.30 2.26 2.16 2.28 2.53 2.81 2.92 2.82
3.53 3.73 3.96 3.91 3.91 3.71 3.46 3.16 2.90 2.68 2.63 2.62 2.58 2.58 2.51 2.65 2.69 2.73 2.53 2.28 2.39 2.38 2.55 2.83 2.94 3.10 3.26 3.27 2.99 2.74 2.58 2.41 2.18 2.10 1.97 1.96 2.17 1.84 2.07 2.37 2.56 2.74 3.06
3.89 4.27 4.65 4.72 4.64 4.29 3.90 3.67 3.55 3.30 3.07 2.88 2.84 2.73 2.64 2.65 2.59 2.70 2.51 2.40 2.47 2.66 2.71 2.54 3.08 3.37 3.42 3.42 2.86 2.74 2.40 2.25 2.08 1.94 1.96 1.81 1.90 1.96 2.00 2.03 2.19 2.36 2.90
4.41 5.01 5.10 5.08 5.31 5.05 4.70 4.45 4.20 3.78 3.41 3.11 2.97 2.86 2.66 2.57 2.49 2.72 2.43 2.40 2.56 2.81 2.88 2.96 3.34 3.42 3.28 3.45 2.90 2.53 2.17 1.82 1.74 1.73 1.61 1.62 1.62 1.59 1.72 2.06 2.34 2.11 2.55
4.27 4.85 5.47 5.61 5.42 5.21 4.89 4.40 4.01 3.60 3.37 3.10 2.87 2.68 2.62 2.58 2.63 2.99 2.66 2.84 2.76 2.80 2.84 3.02 3.27 3.22 3.04 3.39 3.41 2.68 1.90 1.48 1.46 1.35 1.31 1.38 1.35 1.42 1.67 2.15 2.46 2.51 2.29
3.71 4.16 4.60 4.86 4.53 4.20 3.97 3.83 3.66 3.62 3.23 3.07 3.04 3.06 2.80 2.82 2.79 2.79 2.97 2.87 2.88 2.95 2.76 2.84 3.15 3.00 2.64 3.04 3.35 3.28 2.44 1.90 1.47 1.04 1.16 1.22 1.32 1.51 1.55 1.64 2.05 2.53 2.40
3.18 3.33 3.47 3.65 3.69 3.69 3.73 3.80 3.85 3.96 3.63 3.49 3.44 3.35 2.97 2.89 2.83 2.87 2.80 2.72 2.80 2.73 2.66 2.66 2.85 2.94 2.73 2.74 3.13 3.46 2.81 2.13 1.68 1.24 1.16 1.11 1.41 1.74 1.72 1.72 1.87 2.21 2.33
2.49 2.76 3.19 3.39 3.49 3.67 3.90 3.87 3.86 3.77 3.67 3.67 3.79 3.77 3.61 3.33 3.08 2.87 2.69 2.59 2.51 2.43 2.53 2.31 2.57 2.76 2.83 2.53 2.67 2.76 2.61 2.50 2.37 1.73 1.34 1.23 1.51 1.73 1.84 1.83 1.89 2.08 2.26
2.10 2.38 2.91 3.41 3.66 3.80 3.98 4.05 4.26 4.10 3.95 3.82 3.88 3.94 3.71 3.45 3.13 2.80 2.72 2.64 2.54 2.41 2.35 2.31 2.51 2.43 2.46 2.44 2.48 2.51 2.56 2.54 2.38 2.13 1.74 1.58 1.53 1.32 1.36 1.53 1.77 2.02 2.13
2.25 2.50 2.86 3.29 3.62 3.79 3.89 3.93 3.97 3.95 3.91 3.71 3.59 3.33 2.97 2.84 2.72 2.53 2.47 2.43 2.32 2.31 2.32 2.31 2.32 2.29 2.32 2.38 2.36 2.34 2.46 2.48 2.43 2.46 2.12 1.85 1.67 1.42 1.37 1.45 1.60 1.77 1.87

GEFSSE_prec_meanprecacc_252.txt.gz
Total_Precipitation_Accumulation
1.28 1.32 1.51 1.32 1.16 1.23 1.35 1.38 1.41 1.35 1.36 1.43 1.38 1.35 1.33 1.32 1.19 1.11 1.17 1.29 1.39 1.47 1.62 1.70 1.67 1.60 1.57 1.45 1.34 1.31 1.36 1.34 1.51 1.50 1.42 1.39 1.47 1.62 1.79 1.84 1.85 1.24 1.09
1.04 1.00 1.16 1.11 1.11 1.24 1.26 1.31 1.39 1.33 1.30 1.33 1.29 1.23 1.22 1.20 1.20 1.12 1.15 1.29 1.35 1.47 1.62 1.65 1.55 1.44 1.33 1.22 1.12 1.16 1.29 1.39 1.60 1.72 1.74 1.62 1.69 1.82 1.87 1.82 1.86 1.14 1.09
0.74 0.69 0.76 0.94 0.92 0.99 1.03 1.09 1.20 1.18 1.16 1.20 1.18 1.15 1.23 1.26 1.21 1.16 1.19 1.30 1.36 1.42 1.50 1.50 1.38 1.27 1.15 1.10 1.07 1.17 1.27 1.57 1.93 2.15 2.29 1.82 1.41 1.83 1.89 1.69 1.43 1.02 1.05
0.52 0.51 0.56 0.79 0.84 0.86 0.93 0.99 1.10 1.09 1.09 1.10 1.11 1.14 1.15 1.20 1.24 1.25 1.25 1.30 1.29 1.31 1.35 1.33 1.21 1.04 0.97 1.00 1.10 1.22 1.34 1.59 1.92 2.39 2.54 1.67 1.08 1.33 1.42 1.24 1.15 1.01 0.95
0.38 0.47 0.61 0.70 0.78 0.86 0.86 0.92 1.03 1.01 1.03 1.03 1.01 1.05 1.11 1.16 1.23 1.25 1.22 1.19 1.11 1.11 1.12 1.12 0.99 0.87 0.82 0.88 1.06 1.19 1.34 1.64 1.91 2.08 1.76 1.65 1.47 1.32 1.14 1.01 1.02 0.93 0.79
0.29 0.40 0.60 0.69 0.60 0.60 0.68 0.82 0.94 0.99 1.02 0.98 0.93 1.00 1.09 1.13 1.15 1.12 1.03 0.98 0.97 0.95 0.94 0.90 0.81 0.80 0.83 0.93 1.08 1.19 1.35 1.66 1.77 1.36 1.17 1.40 1.21 1.26 1.16 1.13 1.12 0.99 0.80
0.32 0.39 0.52 0.67 0.60 0.58 0.64 0.73 0.82 0.96 0.95 0.89 0.90 0.96 1.07 1.07 1.11 1.07 0.87 0.80 0.87 0.89 0.86 0.79 0.78 0.82 0.85 0.92 1.01 1.14 1.43 1.67 1.47 1.07 1.11 1.38 1.06 1.02 1.15 1.27 1.38 1.19 0.96
0.35 0.37 0.45 0.59 0.63 0.65 0.64 0.68 0.77 0.81 0.85 0.89 0.93 0.98 0.94 0.99 1.02 0.94 0.80 0.78 0.80 0.85 0.83 0.75 0.83 0.85 0.84 0.88 0.94 1.02 1.26 1.41 1.13 0.97 1.04 1.13 0.84 0.95 1.15 1.33 1.52 1.37 1.17
0.41 0.43 0.45 0.53 0.61 0.65 0.71 0.72 0.81 0.88 0.85 0.87 0.92 0.95 0.96 0.95 0.84 0.76 0.81 0.84 0.79 0.79 0.79 0.74 0.73 0.73 0.74 0.79 0.86 0.99 1.21 1.39 1.17 1.08 0.95 0.85 0.78 0.96 1.25 1.35 1.42 1.42 1.32
0.77 0.67 0.50 0.45 0.55 0.61 0.62 0.76 0.85 0.87 0.85 0.85 0.89 0.97 0.97 0.88 0.78 0.75 0.79 0.88 0.87 0.81 0.79 0.73 0.67 0.67 0.74 0.79 0.90 1.11 1.29 1.21 1.11 1.14 1.06 0.83 0.88 1.08 1.29 1.35 1.47 1.48 1.38
1.28 1.16 0.75 0.59 0.65 0.72 0.65 0.67 0.87 0.93 0.90 0.97 1.06 1.07 1.11 1.19 1.06 1.14 1.07 1.13 1.07 1.00 0.98 0.97 0.94 0.88 0.79 0.74 0.92 1.18 1.17 1.12 1.42 1.47 1.06 0.86 1.03 1.32 1.48 1.55 1.59 1.54 1.47
1.46 1.41 1.06 0.94 0.78 0.72 0.63 0.78 1.04 1.04 1.12 1.21 1.31 1.22 1.45 1.65 1.55 1.22 1.41 1.69 1.63 1.59 1.46 1.42 1.39 1.15 0.93 0.90 1.39 1.74 1.39 1.49 1.62 1.32 1.08 1.13 1.45 1.76 1.97 1.84 1.65 1.52 1.40
1.59 1.50 1.27 1.19 1.08 0.89 0.98 0.95 1.13 1.38 1.55 1.40 1.28 1.34 1.69 1.59 1.32 1.34 1.52 1.73 1.92 1.82 1.72 1.81 1.89 1.61 1.54 1.79 2.10 2.00 1.59 1.66 1.65 1.52 1.30 1.43 1.83 2.30 2.54 2.33 1.98 1.70 1.46
1.87 1.75 1.56 1.37 1.23 1.18 1.18 1.15 1.23 1.34 1.50 1.50 1.56 1.53 1.76 2.01 1.91 1.91 2.07 2.05 2.14 2.29 2.57 2.41 2.46 2.24 2.11 2.03 2.16 1.97 1.81 1.85 1.80 2.06 2.10 2.03 2.16 2.49 2.95 2.81 2.40 2.03 1.77
2.35 2.27 2.05 1.71 1.67 1.62 1.68 1.72 1.50 1.56 1.63 1.83 1.98 1.97 1.97 2.22 2.22 2.27 2.34 2.36 2.18 2.27 2.44 2.70 2.60 2.65 2.69 2.46 2.16 2.04 2.14 2.17 2.26 2.29 2.25 2.46 2.40 2.43 2.93 3.06 2.74 2.37 2.16
3.00 3.03 2.81 2.46 2.40 2.34 2.17 2.09 2.02 1.86 2.00 2.06 2.17 2.16 2.15 2.40 2.57 2.52 2.37 2.40 2.28 2.26 2.35 2.58 2.67 3.03 3.02 2.93 2.46 2.25 2.30 2.36 2.38 2.49 2.39 2.65 2.54 2.32 2.60 2.91 2.99 2.81 2.55
3.27 3.44 3.45 3.29 3.27 3.17 2.91 2.60 2.38 2.30 2.25 2.45 2.52 2.44 2.50 2.55 2.72 2.66 2.58 2.38 2.35 2.41 2.61 2.69 2.76 3.04 3.06 2.98 2.80 2.61 2.48 2.25 2.13 2.20 2.21 2.37 2.34 2.26 2.38 2.64 2.94 3.03 2.93
3.54 3.75 3.98 3.92 3.93 3.74 3.51 3.22 2.94 2.71 2.67 2.67 2.63 2.63 2.55 2.68 2.73 2.81 2.61 2.36 2.44 2.42 2.61 2.91 3.01 3.17 3.35 3.35 3.06 2.78 2.62 2.47 2.25 2.18 2.05 2.03 2.26 1.95 2.18 2.48 2.68 2.84 3.16
3.91 4.29 4.67 4.74 4.66 4.32 3.93 3.72 3.60 3.36 3.14 2.92 2.88 2.77 2.67 2.68 2.63 2.76 2.59 2.49 2.52 2.70 2.76 2.58 3.14 3.46 3.52 3.52 2.93 2.81 2.47 2.33 2.17 2.02 2.06 1.89 1.99 2.05 2.08 2.10 2.26 2.44 3.02
4.43 5.04 5.13 5.13 5.35 5.08 4.73 4.49 4.26 3.84 3.46 3.15 3.01 2.90 2.69 2.60 2.54 2.77 2.48 2.47 2.62 2.87 2.96 3.04 3.45 3.53 3.37 3.55 2.96 2.58 2.21 1.86 1.79 1.80 1.68 1.67 1.66 1.64 1.79 2.15 2.47 2.22 2.65
4.28 4.87 5.50 5.65 5.49 5.26 4.93 4.44 4.06 3.66 3.43 3.16 2.90 2.70 2.64 2.61 2.68 3.05 2.71 2.91 2.83 2.87 2.93 3.11 3.37 3.32 3.12 3.46 3.47 2.74 1.95 1.52 1.50 1.39 1.35 1.43 1.39 1.47 1.73 2.23 2.56 2.62 2.38
3.72 4.17 4.62 4.89 4.55 4.22 4.00 3.87 3.70 3.66 3.27 3.11 3.06 3.09 2.83 2.84 2.83 2.84 3.03 2.93 2.95 3.01 2.83 2.92 3.23 3.07 2.71 3.11 3.42 3.34 2.49 1.95 1.50 1.05 1.18 1.24 1.35 1.54 1.59 1.68 2.10 2.60 2.49
3.18 3.34 3.48 3.66 3.71 3.72 3.76 3.83 3.89 4.01 3.67 3.53 3.48 3.39 2.99 2.91 2.86 2.91 2.84 2.78 2.86 2.79 2.73 2.75 2.94 3.03 2.83 2.84 3.23 3.54 2.88 2.20 1.72 1.26 1.17 1.13 1.43 1.76 1.75 1.77 1.93 2.28 2.40
2.50 2.76 3.20 3.40 3.51 3.69 3.93 3.89 3.90 3.82 3.73 3.73 3.84 3.81 3.64 3.37 3.12 2.92 2.74 2.64 2.57 2.48 2.59 2.37 2.65 2.85 2.96 2.66 2.79 2.84 2.68 2.57 2.42 1.77 1.36 1.25 1.53 1.75 1.87 1.86 1.93 2.13 2.31
2.10 2.39 2.91 3.42 3.68 3.82 4.00 4.08 4.30 4.13 3.98 3.86 3.92 3.98 3.75 3.49 3.17 2.84 2.76 2.70 2.61 2.46 2.39 2.35 2.55 2.49 2.56 2.55 2.55 2.59 2.63 2.60 2.43 2.17 1.79 1.64 1.58 1.35 1.39 1.55 1.80 2.06 2.17
2.25 2.50 2.87 3.30 3.64 3.80 3.91 3.95 4.00 3.97 3.94 3.73 3.62 3.37 3.00 2.88 2.77 2.56 2.50 2.46 2.36 2.35 2.36 2.34 2.36 2.33 2.39 2.45 2.42 2.41 2.52 2.54 2.50 2.53 2.20 1.96 1.76 1.48 1.42 1.49 1.65 1.81 1.90

GEFSSE_prec_meanprecacc_258.txt.gz
Total_Precipitation_Accumulation
1.46 1.47 1.68 1.54 1.42 1.42 1.49 1.49 1.51 1.46 1.50 1.60 1.53 1.49 1.46 1.45 1.34 1.26 1.30 1.41 1.49 1.56 1.72 1.79 1.75 1.67 1.63 1.51 1.39 1.35 1.40 1.38 1.55 1.56 1.49 1.46 1.53 1.67 1.84 1.90 1.94 1.31 1.12
1.20 1.13 1.33 1.31 1.30 1.43 1.41 1.44 1.52 1.46 1.46 1.49 1.43 1.37 1.35 1.34 1.35 1.28 1.31 1.41 1.46 1.58 1.73 1.74 1.62 1.50 1.38 1.26 1.16 1.19 1.33 1.44 1.65 1.77 1.83 1.72 1.77 1.89 1.93 1.88 1.95 1.21 1.12
0.87 0.83 0.92 1.11 1.08 1.13 1.15 1.19 1.33 1.33 1.33 1.34 1.31 1.28 1.35 1.38 1.36 1.33 1.33 1.44 1.50 1.54 1.63 1.62 1.47 1.32 1.20 1.15 1.12 1.21 1.32 1.62 1.99 2.23 2.44 1.97 1.51 1.92 1.95 1.77 1.52 1.08 1.10
0.62 0.65 0.70 0.94 1.00 1.00 1.04 1.09 1.21 1.22 1.19 1.20 1.22 1.25 1.27 1.32 1.38 1.41 1.42 1.48 1.46 1.47 1.65 1.51 1.32 1.12 1.03 1.05 1.14 1.26 1.38 1.64 1.99 2.52 2.75 1.86 1.22 1.44 1.51 1.33 1.23 1.07 1.01
0.45 0.56 0.72 0.86 0.98 1.00 0.97 1.02 1.12 1.08 1.10 1.12 1.11 1.15 1.21 1.27 1.38 1.43 1.40 1.36 1.27 1.35 1.52 1.38 1.16 0.99 0.90 0.94 1.11 1.23 1.38 1.70 2.00 2.21 1.92 1.88 1.66 1.44 1.22 1.10 1.10 1.00 0.83
0.38 0.51 0.71 0.81 0.79 0.80 0.82 0.94 1.03 1.06 1.08 1.05 1.01 1.08 1.18 1.23 1.27 1.27 1.21 1.14 1.13 1.19 1.24 1.21 1.03 0.94 0.92 0.99 1.12 1.22 1.39 1.74 1.88 1.48 1.29 1.60 1.38 1.38 1.26 1.23 1.22 1.08 0.85
0.41 0.48 0.61 0.77 0.74 0.77 0.81 0.85 0.91 1.03 1.02 0.96 0.97 1.04 1.16 1.17 1.23 1.21 1.03 0.94 1.02 1.11 1.11 1.01 0.96 0.92 0.92 0.98 1.06 1.18 1.48 1.76 1.60 1.18 1.21 1.54 1.22 1.16 1.28 1.39 1.50 1.30 1.03
0.41 0.44 0.53 0.67 0.72 0.76 0.76 0.78 0.84 0.87 0.91 0.96 1.00 1.05 1.03 1.10 1.14 1.06 0.94 0.92 0.93 1.02 1.02 0.91 0.97 0.94 0.89 0.94 0.98 1.06 1.31 1.53 1.28 1.08 1.12 1.24 1.00 1.12 1.31 1.49 1.68 1.50 1.26
0.45 0.47 0.52 0.61 0.69 0.74 0.79 0.80 0.87 0.93 0.90 0.95 1.01 1.04 1.07 1.05 0.95 0.88 0.94 0.96 0.90 0.92 0.93 0.87 0.85 0.82 0.80 0.84 0.91 1.03 1.27 1.56 1.39 1.21 1.03 0.96 0.93 1.17 1.46 1.58 1.61 1.54 1.39
0.81 0.72 0.55 0.51 0.62 0.69 0.69 0.83 0.92 0.92 0.91 0.94 1.00 1.08 1.07 0.96 0.86 0.85 0.89 0.97 0.96 0.92 0.88 0.83 0.77 0.74 0.79 0.84 0.94 1.16 1.39 1.47 1.39 1.29 1.16 0.92 1.03 1.31 1.51 1.56 1.62 1.57 1.44
1.31 1.20 0.80 0.64 0.69 0.78 0.69 0.71 0.92 1.00 0.98 1.07 1.19 1.20 1.27 1.35 1.18 1.24 1.15 1.21 1.15 1.07 1.05 1.04 0.99 0.92 0.82 0.77 0.95 1.24 1.31 1.37 1.64 1.62 1.18 0.96 1.16 1.49 1.64 1.69 1.70 1.63 1.54
1.50 1.45 1.10 0.98 0.81 0.74 0.65 0.82 1.11 1.12 1.23 1.35 1.46 1.38 1.65 1.87 1.73 1.34 1.49 1.76 1.70 1.65 1.53 1.50 1.44 1.19 0.98 0.95 1.43 1.80 1.48 1.67 1.80 1.46 1.20 1.23 1.55 1.90 2.14 2.01 1.79 1.62 1.48
1.63 1.54 1.32 1.23 1.11 0.92 1.02 1.00 1.20 1.48 1.68 1.56 1.42 1.48 1.85 1.75 1.48 1.47 1.64 1.83 2.01 1.91 1.83 1.91 1.97 1.69 1.62 1.89 2.17 2.05 1.65 1.78 1.78 1.65 1.42 1.54 1.97 2.50 2.76 2.52 2.11 1.79 1.54
1.91 1.80 1.62 1.42 1.28 1.24 1.23 1.20 1.32 1.43 1.61 1.64 1.70 1.63 1.85 2.15 2.06 2.05 2.21 2.17 2.26 2.40 2.71 2.55 2.58 2.35 2.19 2.11 2.21 2.01 1.86 1.94 1.91 2.19 2.22 2.13 2.29 2.66 3.14 2.95 2.50 2.12 1.84
2.39 2.30 2.10 1.76 1.72 1.68 1.76 1.83 1.59 1.64 1.72 1.94 2.10 2.06 2.06 2.34 2.37 2.41 2.46 2.47 2.30 2.39 2.57 2.84 2.70 2.74 2.76 2.52 2.20 2.07 2.18 2.25 2.35 2.40 2.35 2.53 2.46 2.52 3.06 3.17 2.83 2.44 2.22
3.03 3.06 2.85 2.49 2.45 2.40 2.25 2.21 2.12 1.93 2.08 2.14 2.26 2.24 2.26 2.52 2.70 2.66 2.51 2.52 2.38 2.36 2.47 2.70 2.75 3.11 3.08 2.98 2.51 2.30 2.34 2.43 2.46 2.58 2.49 2.73 2.60 2.39 2.69 2.99 3.07 2.89 2.62
3.29 3.47 3.47 3.31 3.30 3.22 2.99 2.70 2.47 2.36 2.30 2.51 2.60 2.51 2.57 2.63 2.82 2.78 2.69 2.50 2.45 2.49 2.69 2.78 2.84 3.11 3.13 3.04 2.88 2.69 2.55 2.32 2.18 2.26 2.30 2.46 2.41 2.33 2.45 2.70 3.01 3.10 2.99
3.56 3.78 4.00 3.94 3.95 3.79 3.59 3.31 3.01 2.78 2.74 2.73 2.69 2.68 2.60 2.74 2.80 2.91 2.71 2.45 2.52 2.48 2.65 2.96 3.07 3.26 3.45 3.44 3.17 2.87 2.69 2.53 2.29 2.23 2.12 2.10 2.34 2.04 2.26 2.55 2.76 2.90 3.23
3.93 4.31 4.70 4.77 4.69 4.36 3.99 3.79 3.65 3.41 3.18 2.96 2.92 2.82 2.71 2.71 2.67 2.84 2.67 2.57 2.61 2.78 2.81 2.64 3.22 3.55 3.63 3.61 3.01 2.87 2.52 2.38 2.21 2.07 2.11 1.96 2.08 2.15 2.18 2.19 2.33 2.51 3.10
4.44 5.06 5.15 5.16 5.40 5.12 4.79 4.56 4.33 3.89 3.49 3.18 3.05 2.93 2.71 2.64 2.58 2.84 2.58 2.57 2.71 2.97 3.05 3.15 3.57 3.65 3.49 3.65 3.03 2.65 2.26 1.90 1.84 1.85 1.73 1.73 1.73 1.71 1.89 2.27 2.60 2.32 2.74
4.29 4.89 5.53 5.69 5.54 5.31 5.00 4.53 4.16 3.74 3.48 3.18 2.92 2.72 2.66 2.63 2.71 3.12 2.77 3.02 2.93 2.98 3.04 3.21 3.49 3.46 3.25 3.55 3.55 2.85 2.03 1.58 1.57 1.45 1.42 1.49 1.45 1.51 1.78 2.31 2.68 2.74 2.49
3.73 4.19 4.63 4.92 4.61 4.27 4.05 3.94 3.79 3.71 3.31 3.14 3.09 3.14 2.84 2.85 2.84 2.89 3.10 3.02 3.04 3.12 2.94 3.03 3.35 3.20 2.82 3.24 3.55 3.47 2.59 2.04 1.59 1.12 1.22 1.28 1.39 1.59 1.63 1.72 2.18 2.70 2.59
3.19 3.35 3.49 3.69 3.74 3.76 3.80 3.87 3.94 4.07 3.73 3.60 3.55 3.46 3.03 2.92 2.87 2.94 2.89 2.84 2.94 2.87 2.83 2.83 3.04 3.14 2.96 2.98 3.37 3.67 2.99 2.32 1.81 1.32 1.22 1.16 1.47 1.81 1.80 1.82 1.98 2.34 2.48
2.50 2.76 3.21 3.42 3.54 3.73 3.97 3.95 3.95 3.90 3.81 3.79 3.91 3.87 3.68 3.39 3.14 2.94 2.76 2.69 2.64 2.56 2.66 2.44 2.72 2.95 3.07 2.77 2.90 2.95 2.78 2.68 2.51 1.83 1.42 1.30 1.58 1.83 1.95 1.91 1.97 2.17 2.36
2.10 2.39 2.92 3.44 3.71 3.86 4.04 4.13 4.36 4.19 4.04 3.91 3.97 4.04 3.80 3.54 3.20 2.85 2.80 2.73 2.66 2.53 2.44 2.38 2.60 2.55 2.64 2.63 2.65 2.69 2.72 2.69 2.50 2.24 1.86 1.72 1.68 1.46 1.48 1.63 1.88 2.12 2.24
2.25 2.50 2.87 3.32 3.67 3.84 3.94 3.98 4.05 4.03 4.00 3.80 3.68 3.43 3.06 2.92 2.81 2.59 2.53 2.50 2.40 2.39 2.40 2.38 2.41 2.37 2.45 2.52 2.51 2.50 2.60 2.61 2.56 2.59 2.28 2.05 1.86 1.59 1.51 1.57 1.71 1.87 1.97

GEFSSE_prec_meanprecacc_264.txt.gz
Total_Precipitation_Accumulation
1.60 1.61 1.85 1.68 1.53 1.52 1.58 1.57 1.58 1.54 1.57 1.68 1.63 1.56 1.52 1.53 1.41 1.35 1.40 1.48 1.55 1.62 1.77 1.86 1.81 1.75 1.72 1.59 1.46 1.40 1.44 1.42 1.60 1.61 1.57 1.58 1.59 1.72 1.90 1.96 2.02 1.37 1.19
1.32 1.25 1.46 1.42 1.40 1.52 1.50 1.52 1.59 1.54 1.54 1.57 1.53 1.46 1.40 1.40 1.44 1.38 1.40 1.48 1.53 1.65 1.80 1.81 1.68 1.59 1.46 1.33 1.22 1.24 1.37 1.49 1.71 1.84 1.92 1.85 1.86 1.95 1.99 1.95 2.03 1.30 1.20
0.96 0.92 1.01 1.19 1.15 1.19 1.22 1.26 1.39 1.41 1.41 1.44 1.41 1.38 1.42 1.45 1.45 1.44 1.43 1.53 1.58 1.61 1.69 1.69 1.55 1.40 1.25 1.18 1.15 1.25 1.35 1.66 2.05 2.31 2.56 2.11 1.59 1.99 2.02 1.86 1.62 1.17 1.17
0.68 0.72 0.77 1.02 1.06 1.05 1.10 1.16 1.29 1.30 1.27 1.29 1.30 1.35 1.37 1.41 1.47 1.51 1.52 1.57 1.54 1.54 1.74 1.60 1.40 1.17 1.06 1.07 1.17 1.30 1.42 1.68 2.04 2.59 2.88 2.01 1.31 1.55 1.61 1.43 1.32 1.17 1.09
0.50 0.61 0.81 0.97 1.05 1.05 1.03 1.09 1.18 1.16 1.17 1.18 1.17 1.22 1.29 1.35 1.46 1.52 1.52 1.47 1.38 1.45 1.63 1.50 1.25 1.04 0.94 0.96 1.13 1.26 1.43 1.75 2.08 2.30 2.01 1.97 1.75 1.57 1.36 1.22 1.18 1.11 0.92
0.44 0.56 0.79 0.93 0.93 0.91 0.91 1.00 1.08 1.11 1.13 1.10 1.06 1.14 1.24 1.29 1.34 1.37 1.34 1.26 1.23 1.32 1.38 1.52 1.23 1.05 0.97 1.02 1.15 1.25 1.45 1.82 1.97 1.58 1.41 1.67 1.47 1.51 1.40 1.36 1.31 1.19 0.93
0.47 0.55 0.67 0.84 0.85 0.90 0.93 0.93 0.95 1.08 1.08 1.02 1.02 1.08 1.21 1.22 1.30 1.30 1.17 1.08 1.12 1.27 1.29 1.37 1.32 1.14 1.01 1.02 1.10 1.22 1.53 1.83 1.66 1.29 1.34 1.64 1.34 1.26 1.41 1.55 1.65 1.42 1.10
0.48 0.51 0.58 0.72 0.77 0.84 0.86 0.86 0.90 0.93 0.97 1.01 1.06 1.09 1.08 1.16 1.21 1.14 1.06 1.05 1.02 1.18 1.20 1.14 1.27 1.16 1.00 0.99 1.03 1.11 1.36 1.58 1.33 1.16 1.21 1.38 1.11 1.22 1.46 1.67 1.86 1.63 1.33
0.50 0.53 0.56 0.64 0.72 0.78 0.84 0.85 0.92 0.98 0.95 1.00 1.05 1.09 1.12 1.10 1.02 0.96 1.03 1.04 0.97 1.02 1.05 1.00 1.00 0.95 0.89 0.91 0.97 1.08 1.31 1.61 1.44 1.27 1.12 1.09 1.02 1.28 1.62 1.77 1.78 1.65 1.45
0.86 0.77 0.60 0.54 0.65 0.73 0.74 0.88 0.96 0.97 0.96 0.98 1.04 1.12 1.13 1.03 0.94 0.94 0.96 1.04 1.01 0.96 0.93 0.90 0.84 0.81 0.84 0.89 1.00 1.21 1.43 1.52 1.45 1.37 1.26 1.04 1.14 1.44 1.67 1.73 1.76 1.66 1.51
1.36 1.24 0.84 0.67 0.71 0.80 0.72 0.74 0.97 1.06 1.05 1.14 1.24 1.29 1.35 1.43 1.25 1.31 1.23 1.28 1.20 1.10 1.08 1.08 1.02 0.96 0.86 0.80 0.98 1.27 1.36 1.45 1.75 1.73 1.29 1.07 1.29 1.66 1.80 1.86 1.84 1.74 1.62
1.54 1.49 1.14 1.01 0.84 0.77 0.68 0.86 1.16 1.18 1.30 1.45 1.57 1.48 1.74 1.96 1.79 1.39 1.57 1.84 1.76 1.69 1.59 1.56 1.48 1.23 1.01 0.96 1.44 1.82 1.51 1.74 1.91 1.61 1.33 1.33 1.70 2.07 2.30 2.18 1.92 1.72 1.56
1.67 1.59 1.35 1.27 1.15 0.95 1.05 1.04 1.25 1.55 1.76 1.65 1.50 1.55 1.92 1.81 1.55 1.55 1.71 1.89 2.07 1.97 1.89 1.97 2.01 1.72 1.64 1.92 2.19 2.08 1.70 1.85 1.91 1.80 1.60 1.69 2.16 2.67 2.92 2.71 2.26 1.89 1.62
1.95 1.84 1.65 1.46 1.32 1.27 1.26 1.24 1.36 1.50 1.71 1.73 1.77 1.69 1.92 2.24 2.15 2.13 2.25 2.21 2.29 2.44 2.75 2.60 2.64 2.39 2.24 2.17 2.27 2.06 1.94 2.07 2.08 2.41 2.49 2.38 2.52 2.86 3.31 3.16 2.67 2.22 1.93
2.44 2.35 2.14 1.79 1.75 1.70 1.79 1.87 1.63 1.68 1.79 2.01 2.17 2.13 2.11 2.40 2.42 2.47 2.50 2.50 2.34 2.44 2.62 2.89 2.76 2.80 2.83 2.59 2.27 2.13 2.27 2.38 2.47 2.55 2.55 2.69 2.58 2.64 3.21 3.37 3.01 2.57 2.33
3.08 3.13 2.90 2.53 2.48 2.43 2.28 2.25 2.15 1.96 2.12 2.20 2.32 2.30 2.32 2.56 2.74 2.71 2.54 2.55 2.41 2.39 2.51 2.75 2.81 3.17 3.14 3.03 2.57 2.37 2.43 2.51 2.54 2.67 2.60 2.83 2.69 2.50 2.83 3.16 3.22 3.01 2.73
3.34 3.54 3.52 3.34 3.33 3.26 3.03 2.74 2.50 2.39 2.33 2.54 2.65 2.57 2.62 2.67 2.86 2.82 2.73 2.53 2.49 2.53 2.74 2.84 2.88 3.15 3.17 3.08 2.93 2.74 2.60 2.37 2.25 2.33 2.38 2.53 2.48 2.44 2.57 2.81 3.10 3.19 3.09
3.59 3.82 4.05 3.98 3.99 3.83 3.64 3.35 3.05 2.82 2.76 2.76 2.71 2.72 2.65 2.77 2.83 2.95 2.75 2.49 2.57 2.54 2.70 3.00 3.10 3.29 3.49 3.48 3.21 2.92 2.72 2.57 2.33 2.29 2.20 2.18 2.42 2.10 2.33 2.65 2.87 3.03 3.34
3.94 4.32 4.72 4.79 4.72 4.40 4.03 3.82 3.68 3.43 3.20 2.98 2.94 2.85 2.75 2.74 2.70 2.87 2.71 2.62 2.66 2.85 2.87 2.68 3.26 3.59 3.68 3.65 3.05 2.91 2.55 2.41 2.24 2.12 2.18 2.03 2.15 2.21 2.24 2.28 2.42 2.62 3.22
4.45 5.06 5.17 5.18 5.43 5.16 4.82 4.60 4.36 3.92 3.52 3.21 3.09 2.97 2.74 2.68 2.62 2.88 2.61 2.61 2.76 3.03 3.10 3.20 3.62 3.71 3.54 3.71 3.08 2.68 2.29 1.94 1.88 1.91 1.79 1.80 1.80 1.76 1.94 2.34 2.67 2.39 2.83
4.29 4.90 5.54 5.71 5.57 5.34 5.03 4.57 4.20 3.78 3.51 3.22 2.96 2.75 2.69 2.66 2.74 3.16 2.80 3.04 2.97 3.02 3.07 3.26 3.53 3.51 3.30 3.61 3.60 2.90 2.09 1.63 1.62 1.51 1.49 1.56 1.51 1.55 1.82 2.36 2.74 2.80 2.56
3.73 4.19 4.64 4.94 4.63 4.29 4.08 3.96 3.81 3.73 3.33 3.17 3.12 3.15 2.86 2.87 2.86 2.91 3.11 3.04 3.06 3.14 2.96 3.06 3.39 3.23 2.85 3.27 3.59 3.52 2.66 2.10 1.66 1.17 1.29 1.36 1.47 1.65 1.67 1.76 2.22 2.75 2.66
3.19 3.35 3.50 3.70 3.76 3.78 3.82 3.89 3.96 4.08 3.75 3.62 3.57 3.48 3.03 2.93 2.89 2.96 2.91 2.86 2.96 2.89 2.84 2.86 3.07 3.18 2.99 3.02 3.40 3.72 3.07 2.37 1.85 1.37 1.29 1.25 1.54 1.88 1.87 1.87 2.04 2.40 2.55
2.50 2.77 3.22 3.43 3.55 3.73 3.97 3.96 3.96 3.92 3.83 3.81 3.93 3.88 3.69 3.40 3.16 2.95 2.77 2.71 2.66 2.57 2.68 2.46 2.75 2.98 3.10 2.81 2.96 3.00 2.86 2.73 2.55 1.88 1.48 1.35 1.62 1.87 2.00 1.98 2.05 2.24 2.42
2.10 2.39 2.92 3.44 3.71 3.87 4.05 4.14 4.38 4.21 4.06 3.93 3.98 4.05 3.81 3.55 3.22 2.87 2.81 2.75 2.68 2.55 2.46 2.41 2.62 2.58 2.67 2.68 2.70 2.73 2.78 2.75 2.54 2.28 1.90 1.75 1.71 1.50 1.53 1.69 1.93 2.17 2.27
2.26 2.50 2.87 3.33 3.68 3.85 3.95 3.99 4.06 4.04 4.02 3.80 3.69 3.44 3.06 2.93 2.82 2.61 2.54 2.52 2.43 2.44 2.44 2.41 2.43 2.40 2.48 2.56 2.54 2.53 2.63 2.64 2.59 2.62 2.31 2.08 1.90 1.63 1.54 1.60 1.77 1.93 2.01